Regional Weather Roundup
Issued by NWS Goodland, KS

Home | Current Version | Previous Version | Graphics & Text | Print | Product List | Glossary On
Versions: 1 2 3 4 5 6 7 8 9 10 11 12 13 14 15 16 17 18 19 20 21 22 23 24 25 26 27 28 29 30 31 32 33 34 35 36 37 38 39 40 41 42 43 44 45 46 47 48 49 50
000
ASUS43 KGLD 191708
RWRGLD

GOODLAND FORECAST AREA HOURLY WEATHER ROUNDUP
NATIONAL WEATHER SERVICE GOODLAND KS
1100 AM MDT SAT AUG 19 2017

...OFFICIAL OBSERVATIONS...

CITY           SKY/WX    TMP DP  RH WIND       PRES   REMARKS
GOODLAND KS    SUNNY     86  66  51 S20G25    30.01F
HILL CITY KS   SUNNY     91  67  44 S15       29.97F
IMPERIAL NEB   SUNNY     85  63  47 S13       29.98F
MCCOOK NEB     SUNNY     89  68  49 S13       29.96F
AKRON CO       SUNNY     84  52  33 W8        30.05F
BURLINGTON CO  SUNNY     82  63  52 SW14      30.06S
LIMON CO       SUNNY     82  52  35 CALM      30.12F
$$

...UNOFFICIAL OBSERVATIONS...

CITY           SKY/WX    TMP DP  RH WIND       PRES   REMARKS
LENORA KS        N/A     87  32  14 SE10        N/A
NORTON KS      SUNNY     88  61  40 SE12      29.97F
SHARON SPRINGS   N/A     89  66  46 S17G25      N/A
TRENTON NEB      N/A     89  32  13 S8          N/A
KIT CARSON CO    N/A     80  63  56 MISG        N/A
YUMA CO        FAIR      82  41  23 S5        30.02S
$$




USA.gov is the U.S. government's official web portal to all federal, state and local government web resources and services.